Location: Newark
(31.5350°N, 35.0986°E)
Time: 15:52:48
(UTC+00:00)

Explorer 7 - Pass Details

Date: 27 October 2019
Orbit: 485 x 680 km, 50.3° (Epoch: 14 November)

Event Time Altitude Azimuth Distance (km) Brightness Sun altitude
Rises 14:02:29 0° 299° (WNW) 2,599 10.9 9.9°
Reaches altitude 10° 14:04:55 10° 285° (WNW) 1,737 10.4 9.4°
Maximum altitude 14:08:08 24° 230° (SW) 1,113 9.9 8.8°
Drops below altitude 10° 14:11:30 10° 175° (S) 1,815 9.7 8.1°
Sets 14:14:05 0° 161° (SSE) 2,746 10.4 7.6°
